Wind_Speed
67 64 63 61 58 56 55 54 55 54 55 59 65 70 71 68 65 63 58 54 56 61 62 60 59 57 58 60 63 64 66 68 70 70 70 73 77 83 88 90 88 83 79 84 91 89 85 84 81 79 78 71 64 63 63 60 58 54 49 48 53 58 58 58 57 56 56 55 54 55 54 54 54 52
69 67 65 63 61 58 56 54 55 55 55 56 61 67 70 70 68 65 62 57 55 58 62 61 59 57 57 59 61 62 63 65 68 69 70 71 74 79 83 87 90 89 83 81 87 89 88 88 86 82 80 73 68 66 59 58 61 58 52 46 45 49 53 55 56 56 56 56 55 55 55 55 54 53
72 69 66 65 63 61 58 56 56 56 55 55 57 62 67 70 70 67 64 61 56 56 60 62 60 57 57 58 60 61 60 62 64 66 69 70 72 76 79 82 86 89 87 83 83 85 84 87 87 86 84 76 71 71 63 58 61 62 60 52 45 45 47 49 52 54 55 57 57 56 56 55 55 54
72 71 68 66 65 63 60 57 56 56 56 55 55 58 63 68 70 69 67 63 59 56 58 61 61 58 57 58 60 61 60 59 61 63 67 69 72 74 76 79 82 86 88 85 83 81 79 84 89 88 87 81 73 72 69 65 62 62 62 58 50 46 44 43 47 50 52 53 56 57 57 57 56 56
69 72 70 69 67 65 62 59 57 56 56 56 55 55 59 65 69 70 68 65 61 58 57 59 62 59 57 58 59 61 61 59 58 60 63 66 70 73 75 78 79 83 87 86 86 83 77 81 88 87 86 82 75 72 71 71 70 66 63 62 57 50 45 43 44 47 50 51 52 55 56 57 57 57
62 69 71 71 69 67 64 61 58 57 57 56 55 54 56 61 66 69 69 67 63 60 58 58 61 62 59 57 58 60 61 60 59 59 61 63 66 71 75 77 78 80 84 87 88 87 81 79 84 85 83 80 76 73 73 73 74 74 69 65 64 59 53 48 45 46 49 52 52 53 53 54 55 55
54 64 70 71 71 68 65 62 59 57 57 56 55 55 55 58 63 66 69 69 65 62 60 58 59 62 61 58 58 59 60 61 60 59 60 62 65 70 74 76 76 77 81 85 88 88 84 80 82 85 84 81 78 75 75 74 75 79 76 70 69 67 61 54 48 45 47 51 54 55 53 52 53 53
46 57 65 70 71 70 66 64 61 58 57 56 55 55 54 56 60 64 67 69 67 64 62 59 58 60 62 61 58 58 59 60 60 60 59 61 65 69 73 75 74 75 78 81 84 85 84 82 83 87 86 84 81 78 76 75 75 79 82 77 73 72 67 60 53 49 47 47 52 55 55 53 53 53
41 50 60 68 71 70 67 65 62 59 57 56 55 55 54 54 57 62 65 68 68 66 63 61 58 58 61 63 60 57 57 58 60 60 59 59 62 67 71 73 73 73 74 77 80 81 83 84 85 88 87 84 82 80 78 78 77 79 82 80 78 75 72 67 61 55 51 48 50 54 56 54 52 51
36 43 53 63 68 69 68 66 63 61 58 57 55 55 54 54 55 59 63 66 67 67 64 62 60 57 58 62 62 58 57 57 58 59 59 59 60 63 67 70 72 72 72 73 76 77 79 82 84 87 87 84 82 81 80 80 80 81 81 81 81 79 76 73 68 61 56 52 51 53 56 56 54 51
32 39 47 57 64 68 69 67 64 62 59 57 56 55 54 53 53 56 60 63 65 66 65 64 62 59 56 60 63 61 57 57 57 58 59 58 58 59 62 66 70 72 72 73 74 75 77 79 82 84 84 83 82 82 83 83 83 84 84 84 85 83 79 77 74 69 64 59 56 56 58 61 61 58
31 36 43 51 59 65 68 67 65 62 60 58 56 55 54 53 53 55 58 60 62 64 65 65 63 61 57 57 61 64 60 57 56 57 58 58 57 58 59 61 65 69 72 72 73 74 75 77 79 80 80 81 83 84 86 87 87 86 86 86 86 85 82 80 78 76 72 67 63 62 62 64 66 66
28 33 38 45 54 61 65 66 65 63 61 58 56 55 54 53 53 54 56 57 59 61 64 65 64 63 60 57 58 63 63 59 57 57 57 57 57 56 57 58 59 63 66 69 70 71 72 73 75 76 77 78 80 83 85 86 86 85 85 84 84 83 82 80 79 77 73 70 68 66 65 66 68 69
26 31 34 40 49 56 61 63 64 63 61 59 57 55 55 54 54 55 56 56 57 58 61 64 65 64 63 60 57 59 62 63 60 58 58 57 57 56 56 56 56 57 59 62 64 66 68 70 71 73 74 75 77 78 79 80 81 82 83 83 83 83 81 79 78 76 72 69 69 68 68 69 70 70
24 31 34 38 44 52 57 60 63 64 62 59 57 56 55 55 55 56 57 57 56 56 58 61 64 64 63 63 61 58 60 63 63 61 60 59 59 57 57 56 55 55 56 57 59 61 63 66 68 70 71 73 74 75 75 76 77 79 82 84 84 84 81 79 78 78 75 72 71 70 70 70 71 71
21 28 35 39 43 49 54 58 62 63 61 58 56 55 56 56 56 56 58 57 55 55 56 58 61 63 63 63 64 61 59 61 63 64 63 62 61 60 59 58 57 57 57 57 57 57 58 61 64 66 68 70 71 72 73 74 75 78 81 83 85 85 83 80 80 80 79 78 76 74 73 73 73 72
17 24 32 39 43 48 53 57 61 62 59 57 56 55 55 56 56 56 57 58 57 55 54 55 57 60 62 62 63 64 62 61 61 64 65 65 64 63 62 61 61 61 60 60 59 59 58 59 61 62 65 67 69 70 71 73 75 77 80 82 84 84 83 82 81 81 81 81 80 79 77 76 75 74
14 20 28 37 43 48 51 55 59 60 58 56 55 54 54 55 56 56 57 58 57 55 53 53 54 57 59 60 61 63 64 63 62 62 64 66 67 67 66 65 65 64 63 63 62 62 61 61 61 62 63 65 67 69 71 73 75 77 79 80 82 83 82 81 81 81 81 81 81 81 80 80 79 77
11 17 25 33 41 47 50 53 56 57 56 55 54 53 53 54 55 56 56 58 58 56 54 52 52 54 57 59 60 61 63 64 64 63 63 65 67 68 69 68 67 66 65 65 65 64 63 63 63 63 64 65 66 67 69 72 74 76 77 79 80 81 81 81 80 80 81 80 80 80 80 80 79 78
9 15 22 29 37 44 48 51 53 54 54 53 53 52 52 53 54 55 56 56 57 57 56 54 52 52 54 57 59 61 62 63 64 65 63 63 65 67 69 69 69 67 67 67 66 66 66 65 65 65 65 66 66 66 67 68 70 72 74 76 77 78 79 79 78 78 78 77 77 76 76 75 75 74
8 12 19 26 33 39 44 48 50 51 52 52 51 50 50 51 53 54 55 56 56 57 57 56 54 52 52 54 56 59 61 62 64 65 65 64 64 65 67 69 70 70 69 68 68 69 68 67 67 67 67 67 67 67 66 67 68 68 69 71 72 73 74 74 74 73 73 73 72 72 72 72 72 72
8 9 15 22 29 36 41 45 47 48 49 49 49 48 48 48 50 52 54 55 55 56 57 57 56 55 54 54 55 57 60 62 63 65 65 66 65 64 65 66 69 71 71 70 70 70 70 70 70 70 69 69 68 68 67 68 68 68 68 68 68 68 69 70 70 70 71 71 71 71 71 71 71 71
6 8 12 19 26 32 38 42 44 45 46 47 46 46 46 46 48 50 52 53 53 54 55 56 56 56 56 55 55 56 58 60 62 64 65 66 65 65 65 65 67 69 70 72 72 71 71 71 71 72 72 71 70 70 69 68 68 68 69 69 68 68 67 67 68 68 69 69 70 70 70 70 70 70
6 6 10 15 22 29 35 39 41 43 44 44 44 43 44 44 46 47 49 51 52 52 52 53 54 55 56 56 56 56 57 59 60 62 64 65 65 65 65 65 65 66 67 70 73 73 73 72 72 72 73 73 72 72 71 70 69 69 69 68 68 68 67 67 67 67 67 68 69 69 69 70 70 70
5 5 8 13 18 25 31 36 39 41 42 42 42 42 42 43 44 46 47 49 50 51 51 51 51 53 54 55 55 56 57 58 59 60 62 64 65 65 65 65 65 65 64 66 70 72 74 74 74 73 73 73 73 73 72 72 71 71 70 69 69 68 68 67 67 67 67 68 68 69 68 68 68 68
6 4 7 11 16 21 27 32 36 38 39 40 40 40 41 41 43 44 46 47 48 50 50 50 50 51 52 53 54 55 56 57 58 59 60 61 63 64 65 65 65 64 64 65 67 69 71 73 74 75 74 74 74 73 73 73 73 72 72 72 71 71 70 69 68 68 68 68 68 68 67 66 65 64
8 4 6 10 14 18 24 29 32 35 37 38 39 39 39 39 40 42 44 46 47 49 49 50 50 50 50 51 52 53 54 55 56 58 58 59 60 61 63 64 65 65 65 65 65 66 68 70 72 74 75 75 75 75 74 74 73 73 73 73 73 73 72 72 71 70 70 70 70 69 69 69 68 66
9 5 5 9 12 16 21 26 29 32 35 36 37 37 37 37 38 39 41 43 45 47 48 49 49 49 49 49 50 51 52 53 55 57 58 58 59 59 60 61 63 65 65 65 65 65 66 67 69 71 73 75 76 76 76 75 75 74 74 74 74 74 74 74 73 73 73 73 73 73 73 72 72 72
8 6 5 8 12 15 19 23 27 30 32 34 35 35 35 36 36 37 39 40 43 45 47 48 48 48 48 48 48 48 49 51 53 55 57 57 58 58 59 59 60 62 64 65 65 66 66 66 67 68 70 72 73 75 76 77 76 76 76 75 75 75 75 75 75 75 75 75 75 75 75 75 75 76
6 6 6 7 11 15 18 21 25 28 31 33 34 34 34 35 35 36 37 39 40 43 45 47 48 48 48 48 48 47 47 48 50 52 55 56 57 58 58 58 59 59 61 62 64 66 66 66 67 67 68 68 70 71 73 75 76 77 77 77 76 76 76 76 76 77 77 76 76 76 76 77 78 78
6 6 7 7 9 13 16 19 23 26 29 31 33 34 34 34 34 35 36 37 38 40 42 44 46 47 48 48 48 47 47 47 48 50 51 53 55 56 57 58 57 57 58 59 61 62 64 66 67 68 67 67 68 68 70 71 73 74 75 76 77 77 77 77 77 77 78 78 78 78 78 78 78 78
7 6 7 8 9 11 14 18 21 24 27 30 32 34 34 35 35 35 35 36 37 38 39 41 43 45 47 47 47 47 47 47 48 48 48 50 52 54 56 56 56 56 57 57 58 58 60 62 65 67 68 68 68 68 68 69 69 70 72 73 74 75 76 77 77 78 78 79 80 80 80 80 79 78
7 5 6 7 9 11 13 16 19 22 25 28 31 33 34 35 35 35 35 36 36 37 38 39 40 42 44 46 47 47 47 48 48 47 47 48 50 51 53 54 56 56 56 56 56 56 56 58 60 63 65 68 69 69 69 68 68 68 69 70 71 72 72 73 74 76 77 78 79 80 80 81 81 80
6 5 5 7 9 11 13 15 17 20 22 25 28 30 33 34 35 36 36 36 36 37 37 39 40 41 42 43 45 47 47 48 48 48 47 48 49 50 51 52 54 55 56 56 55 55 55 56 57 59 61 64 67 69 69 68 68 68 68 68 69 70 70 71 72 73 74 75 76 77 78 79 80 80
6 6 7 8 9 11 13 14 16 18 20 22 25 28 30 32 34 35 35 36 36 36 37 38 39 40 41 42 44 45 47 48 48 48 48 48 49 49 49 50 51 53 54 55 55 55 55 55 56 57 58 61 63 65 66 67 68 69 69 69 69 69 70 71 72 72 73 74 74 75 76 76 77 78
6 7 8 9 9 11 13 15 16 17 18 20 22 25 27 29 31 33 34 35 35 36 36 37 38 38 39 41 42 44 46 47 48 48 49 49 49 49 49 49 50 51 52 53 54 54 55 55 55 56 57 58 59 60 60 62 65 68 69 70 69 69 70 71 72 72 73 73 73 73 73 73 74 75
8 6 9 10 10 11 12 14 16 17 18 19 20 22 24 26 28 30 31 33 34 34 35 36 36 37 37 38 40 41 43 46 47 49 49 50 50 50 50 50 50 51 51 51 52 52 53 54 55 55 55 56 56 55 55 57 61 63 66 68 69 69 70 70 71 72 73 73 73 73 72 72 72 72
12 6 8 10 11 12 12 14 16 17 18 19 20 21 22 24 25 27 29 30 32 33 34 35 36 36 36 37 37 38 40 42 44 47 48 50 51 52 52 52 53 53 52 52 52 52 53 53 54 54 54 53 53 52 53 55 57 58 60 63 65 67 68 68 69 70 71 72 73 73 72 72 72 72
18 11 7 9 11 12 12 13 15 17 18 19 20 20 21 22 23 24 26 28 29 31 32 33 34 35 36 36 36 36 37 38 40 42 44 47 49 51 53 54 55 55 55 55 55 55 55 55 54 54 54 53 51 52 54 55 56 57 59 60 62 63 64 65 66 66 67 68 69 70 70 71 71 71
20 16 11 8 10 12 13 14 15 16 18 19 20 21 21 21 22 22 23 25 26 28 29 31 32 34 34 35 35 35 36 37 37 38 40 41 43 46 48 51 53 55 56 57 58 58 58 57 57 57 57 55 55 57 59 59 58 57 58 58 58 59 61 62 63 64 64 64 65 66 68 68 69 69
21 19 15 11 9 11 13 14 15 16 18 19 20 21 22 22 22 22 22 23 24 25 27 28 30 31 32 33 34 34 35 36 36 37 38 38 39 41 43 44 47 49 52 54 56 57 58 59 60 61 61 60 61 62 62 60 58 57 58 58 59 59 60 60 61 61 62 62 63 63 64 64 66 67
22 20 18 14 11 10 12 14 16 17 18 19 20 21 22 23 23 23 23 23 24 24 25 26 27 29 30 31 32 34 35 36 36 37 37 38 39 39 40 41 42 44 45 47 49 51 53 55 57 60 61 62 64 65 64 62 60 60 61 62 63 62 62 61 61 60 61 61 61 61 60 61 62 63
24 22 20 17 14 11 11 13 15 17 18 19 20 21 22 23 24 24 24 24 24 25 25 26 26 27 28 29 30 32 34 35 36 37 38 39 39 40 41 41 42 43 43 44 45 46 47 49 51 53 56 58 61 62 63 63 64 64 65 65 65 65 65 64 64 63 63 62 61 61 60 60 60 59
25 24 22 20 17 13 11 12 14 16 17 19 20 21 22 24 25 25 25 25 25 25 26 26 26 26 27 27 28 30 31 33 35 37 38 39 40 41 42 43 43 44 45 45 46 46 47 48 48 50 51 53 54 56 57 59 61 62 64 65 66 67 67 67 67 66 66 65 63 62 62 61 60 58
26 25 24 22 20 17 13 11 13 15 17 18 20 20 22 23 25 26 26 26 26 26 26 27 27 27 27 27 27 28 29 30 32 34 36 38 40 41 43 44 45 46 47 47 48 48 49 49 50 50 51 51 52 52 53 54 55 57 59 61 63 65 66 67 67 68 67 66 65 65 64 63 62 61
Wind_Direction
240 239 238 237 237 236 235 234 235 235 232 229 228 228 228 227 227 227 227 225 225 224 224 223 222 221 220 219 219 219 220 222 222 222 222 220 220 221 222 222 222 223 225 223 221 222 222 221 222 223 224 228 228 222 216 213 211 211 214 219 224 226 227 227 227 228 229 230 229 228 228 229 230 231
236 235 235 234 234 234 233 232 232 233 232 230 228 227 227 227 226 226 226 225 225 224 222 221 221 221 220 219 219 220 221 222 222 222 222 222 221 220 221 221 222 223 225 224 221 221 223 224 225 226 227 227 225 221 215 207 205 205 206 212 219 222 224 227 227 227 228 229 229 229 230 230 230 231
231 231 231 231 231 231 231 230 230 231 231 230 228 227 226 226 226 225 225 225 224 224 222 219 218 219 219 219 219 219 221 223 223 222 221 222 222 221 221 220 221 222 224 225 222 221 222 224 225 227 227 225 221 221 221 214 207 206 206 209 213 216 219 223 226 227 228 229 229 229 230 230 230 231
227 227 227 227 228 228 228 228 227 228 229 229 228 227 226 225 225 224 224 224 224 224 223 219 217 216 218 218 218 219 220 222 223 223 221 221 221 222 222 221 220 220 222 224 224 222 221 222 223 225 226 224 220 219 224 223 216 212 210 208 210 214 216 220 225 227 227 228 229 230 230 230 230 231
226 223 223 223 224 225 226 226 226 226 227 227 227 226 226 225 224 224 223 223 223 223 224 221 217 215 215 217 217 217 219 220 222 223 223 222 222 222 222 223 222 220 220 222 223 224 222 220 220 222 224 223 221 220 222 224 222 220 215 209 209 211 211 216 222 225 225 225 227 230 231 231 232 232
225 221 220 220 220 222 223 223 224 224 224 225 225 225 226 225 224 223 223 222 222 222 223 223 219 215 214 216 216 216 217 218 219 221 222 223 223 222 222 223 222 221 219 220 222 224 224 221 220 221 223 223 222 220 221 222 223 223 218 211 209 210 209 213 218 222 225 227 227 229 230 231 233 233
226 221 218 217 217 219 220 221 222 222 222 223 224 224 224 224 223 223 222 222 221 221 222 223 222 218 215 214 215 216 216 217 217 218 220 221 222 222 222 222 222 221 220 220 221 224 225 223 222 224 225 225 223 221 222 222 223 223 220 214 213 213 211 211 215 218 223 228 229 229 229 230 231 232
226 220 217 216 215 216 217 218 220 221 221 221 222 223 224 223 222 222 222 222 221 220 220 222 223 221 217 214 215 215 215 216 216 217 218 219 220 221 221 221 222 221 220 220 220 222 223 222 222 225 227 226 223 222 222 222 223 223 221 217 217 218 214 210 212 215 216 221 225 227 230 232 232 231
225 220 217 215 213 214 215 216 217 219 219 219 220 221 222 223 222 220 221 221 221 219 219 220 222 222 219 216 215 215 215 215 215 215 217 218 218 218 218 219 220 220 219 219 218 219 220 220 221 223 225 225 223 222 222 222 223 223 222 219 218 220 217 211 210 212 214 217 219 220 225 230 231 229
223 219 216 214 213 212 213 214 215 217 218 218 218 219 220 221 221 219 219 220 220 219 218 218 220 221 221 219 217 216 215 214 214 214 215 217 217 217 217 217 217 218 218 218 218 217 217 218 219 220 221 222 222 223 222 222 222 223 222 220 218 217 215 212 209 209 213 216 217 217 219 224 228 229
220 217 215 213 211 211 212 212 213 214 216 217 217 217 218 220 221 219 218 218 219 219 218 217 218 219 220 219 218 217 216 214 214 214 214 215 216 217 217 216 216 216 216 217 217 217 216 216 217 218 218 220 221 223 223 223 223 223 222 221 218 216 214 212 210 210 212 216 218 219 221 223 227 229
220 216 214 211 210 210 211 211 212 213 214 216 216 216 215 216 219 218 217 217 218 219 218 217 217 217 218 218 219 219 218 215 214 215 214 214 215 215 215 216 216 216 216 216 216 216 216 216 216 217 218 219 221 222 223 223 223 223 223 221 219 215 213 212 212 213 214 216 218 221 223 225 227 230
222 215 213 210 208 209 210 211 211 212 212 214 215 215 213 213 215 216 216 216 216 218 218 218 217 216 216 217 217 219 219 217 215 215 215 214 214 214 213 213 215 215 216 216 216 217 216 216 216 217 218 219 220 221 222 222 223 223 223 222 219 217 214 213 213 214 215 217 218 219 222 224 227 230
225 213 209 208 207 207 209 210 211 211 211 212 214 214 213 212 213 214 215 214 215 216 217 218 218 217 216 216 216 218 219 219 218 216 214 214 214 213 212 211 212 214 215 217 218 218 218 218 218 217 218 218 220 221 222 222 223 224 224 223 221 218 216 214 214 214 214 215 217 218 220 224 226 229
232 217 208 206 205 204 207 209 211 210 210 211 213 214 213 211 211 213 214 214 214 215 216 217 218 218 217 216 216 217 218 219 219 217 215 215 214 214 213 212 211 212 214 215 217 218 219 219 219 219 219 220 221 222 223 224 224 225 226 224 222 220 217 215 215 216 215 214 215 216 219 223 225 228
238 225 213 207 204 202 204 208 210 210 209 209 212 213 213 212 211 212 213 213 214 215 216 217 217 218 219 218 217 218 218 219 219 219 217 216 215 214 214 213 213 213 214 214 215 217 218 219 220 220 221 221 221 222 223 224 224 225 226 225 224 222 219 216 216 217 216 216 216 216 218 221 224 227
241 229 218 210 205 202 203 207 209 209 208 208 211 213 214 213 212 212 213 213 214 215 216 216 217 218 220 219 219 218 219 219 220 220 219 218 216 215 214 214 214 214 215 215 215 215 216 218 218 219 220 220 221 221 222 223 223 224 225 225 224 223 221 219 218 218 218 218 218 219 220 221 223 225
245 231 221 214 209 205 203 206 208 208 207 208 210 212 214 214 213 213 213 214 215 215 215 215 216 218 219 220 221 220 220 220 220 221 220 220 218 216 215 215 215 215 216 216 216 215 215 216 217 218 219 219 220 220 220 221 222 223 223 224 224 224 223 221 220 219 219 219 220 221 222 223 225 226
255 233 223 216 212 208 205 205 207 207 207 208 210 212 213 214 213 213 213 214 215 216 215 215 215 216 218 219 221 222 221 221 221 221 221 221 220 219 217 216 215 216 216 217 218 217 217 217 217 217 217 218 219 219 220 220 220 221 221 222 222 223 223 223 222 221 221 221 222 222 223 224 225 226
269 238 224 217 214 211 208 206 206 207 207 208 209 211 213 214 214 214 214 214 216 217 216 216 216 216 217 218 220 221 222 222 222 222 222 222 222 221 219 218 217 216 217 217 218 218 219 218 218 217 217 218 218 219 220 221 221 221 221 221 221 221 222 223 223 223 223 223 223 223 224 224 225 226
280 244 228 219 214 211 209 208 207 207 208 209 209 211 213 214 215 215 215 215 216 217 218 217 217 217 217 218 220 221 222 222 222 222 223 223 223 222 221 220 219 218 218 218 218 218 218 219 219 219 219 218 218 218 219 221 222 223 223 222 222 222 222 222 223 224 224 224 225 225 225 226 227 228
285 251 231 221 215 211 209 208 207 208 209 210 210 211 213 215 215 216 216 216 217 218 219 219 220 220 219 219 220 221 222 223 223 223 223 224 224 224 223 222 221 220 220 219 218 218 218 218 219 220 220 220 219 219 219 220 221 223 224 225 225 225 225 225 225 225 226 226 227 227 227 228 228 229
286 253 232 222 215 211 208 207 207 208 209 210 211 212 213 215 216 217 217 217 218 219 220 221 222 222 222 222 221 222 223 224 224 224 224 225 225 225 225 224 223 222 221 221 220 220 220 220 219 220 220 220 221 221 221 221 221 222 223 224 225 227 227 228 229 229 228 228 228 229 229 229 230 230
294 251 231 223 216 211 208 208 208 208 209 211 212 213 214 215 216 217 217 218 219 219 220 221 222 224 225 225 224 223 223 224 225 225 225 225 225 226 226 226 226 224 224 223 222 221 222 222 222 221 221 221 221 222 222 223 223 223 224 224 225 225 226 228 229 230 231 231 231 231 231 231 231 231
307 248 226 220 217 212 209 208 208 209 209 211 212 213 215 215 217 217 218 218 219 220 221 222 223 224 225 226 226 225 224 224 225 226 227 226 226 226 227 227 227 227 227 226 224 223 224 224 224 224 223 223 223 223 223 224 224 224 224 225 225 226 226 226 227 229 230 231 232 232 232 233 233 233
321 251 220 214 214 213 211 209 209 210 210 212 213 214 216 217 218 219 219 219 219 220 221 222 223 224 225 226 227 228 227 226 226 226 228 228 228 227 227 227 228 228 229 229 227 226 225 225 226 226 225 225 225 225 225 225 225 225 225 225 226 226 226 226 227 228 229 230 231 231 232 231 231 232
324 270 215 208 209 211 212 211 210 210 211 212 214 215 217 218 220 220 220 220 221 221 222 223 224 225 226 227 227 228 229 229 228 227 228 229 230 229 228 227 228 229 230 231 230 229 228 228 227 227 227 227 227 227 227 227 227 227 227 227 227 227 227 227 227 227 228 229 230 230 230 230 229 229
319 292 218 204 204 208 211 212 212 212 212 213 214 216 218 219 221 222 222 222 223 223 223 224 225 226 227 228 228 228 229 229 229 229 228 229 230 231 230 229 229 229 230 232 232 232 231 231 230 229 229 229 229 229 230 230 230 229 229 229 228 228 228 227 227 227 227 228 229 229 230 231 232 232
308 297 243 206 202 205 209 212 213 213 213 214 215 216 218 219 220 222 223 224 224 224 225 225 226 227 228 228 229 229 229 229 230 230 230 229 229 230 231 232 231 231 231 232 233 233 234 233 233 232 231 231 231 231 231 232 232 232 232 231 231 230 230 229 229 228 227 227 228 229 230 231 232 233
303 294 264 222 204 203 207 210 213 215 215 215 216 217 218 219 220 221 223 224 224 225 225 226 226 227 228 228 229 229 228 229 229 229 230 230 230 230 231 232 233 233 233 233 233 234 234 235 235 235 234 233 232 232 232 232 233 233 233 233 233 232 232 231 231 231 230 229 229 229 229 229 230 231
312 294 271 246 218 206 205 208 212 215 216 217 217 218 219 219 220 221 222 223 224 225 226 226 227 228 229 229 229 229 229 229 229 228 228 229 230 230 231 232 233 234 235 234 233 233 234 235 235 236 235 235 234 234 234 233 233 233 234 234 234 234 234 233 233 233 233 232 232 231 231 231 231 231
304 290 269 253 233 217 210 209 212 215 217 218 219 220 220 221 221 222 223 224 224 225 226 226 227 228 229 230 230 230 230 229 229 229 228 228 228 229 230 231 232 234 235 235 235 233 233 233 234 235 235 235 235 234 235 234 234 234 234 234 235 235 235 235 235 235 235 235 234 234 234 234 234 234
282 278 264 248 236 227 221 216 214 215 217 219 220 221 222 223 223 224 224 225 225 226 226 226 226 227 229 230 230 231 231 230 230 229 227 227 227 227 228 228 230 232 233 235 235 234 233 232 231 232 233 234 234 234 234 234 234 235 235 235 235 236 236 236 236 236 237 237 237 237 236 236 236 236
263 256 249 241 234 230 227 224 221 219 218 219 220 222 223 224 225 225 226 226 227 227 227 226 226 227 228 229 230 230 231 231 231 230 228 227 226 226 226 226 227 229 230 232 233 234 234 233 232 230 230 231 232 233 234 234 234 235 235 236 236 236 236 236 237 237 238 238 238 239 239 239 238 239
269 248 240 236 233 230 228 227 226 224 222 221 221 222 223 224 225 226 227 227 227 228 228 228 227 227 227 228 229 230 230 231 231 230 229 229 228 227 226 225 225 226 227 229 230 232 233 233 233 231 230 230 231 231 232 233 234 234 235 236 236 237 237 237 237 237 238 238 239 239 240 240 241 241
295 255 243 239 235 230 226 225 225 225 225 224 223 223 223 224 225 226 227 227 228 228 228 229 228 228 228 228 228 229 229 230 230 230 230 229 229 227 226 226 226 226 226 227 228 229 230 232 232 232 231 231 231 231 231 231 232 233 234 234 235 236 237 237 238 238 238 239 239 240 240 241 241 242
330 270 246 241 238 233 227 224 222 222 224 225 225 224 224 223 224 225 226 227 228 228 228 229 229 228 228 228 228 229 229 229 229 229 229 229 229 228 227 227 227 227 227 227 227 228 229 230 232 232 232 232 232 232 231 231 231 231 232 233 233 234 235 236 236 237 238 239 239 240 240 240 240 241
350 308 255 242 241 238 232 226 222 220 220 221 223 223 223 223 223 223 224 226 227 227 227 228 228 228 228 228 228 228 228 229 229 229 229 229 229 229 228 228 228 228 228 228 229 230 230 230 231 232 232 232 232 232 232 231 231 231 231 232 232 232 233 234 235 236 237 238 238 238 239 239 239 240
356 342 294 252 242 240 237 231 225 221 219 218 220 221 222 222 223 223 224 224 224 225 226 226 227 227 228 228 228 228 228 228 228 228 229 229 229 229 230 230 230 230 230 230 230 231 232 232 233 234 234 233 232 232 231 231 231 231 231 231 231 232 232 233 234 234 235 236 237 237 237 237 237 238
355 351 334 286 252 241 239 236 231 226 221 218 218 219 220 220 221 222 223 224 223 223 224 225 225 226 227 227 228 228 228 228 228 227 227 228 228 229 229 230 231 231 231 231 231 232 232 233 234 235 235 234 233 233 232 232 231 232 233 234 234 234 234 234 234 234 235 235 236 237 237 237 237 238
355 354 347 325 281 252 242 239 236 232 227 222 219 219 219 219 219 220 222 223 224 223 223 223 224 224 225 226 226 227 227 228 227 227 226 226 226 227 228 229 230 231 231 232 232 233 233 233 234 234 235 235 236 236 236 235 234 235 236 237 237 237 236 236 236 236 236 236 236 237 237 238 238 238
357 355 352 342 316 277 253 243 239 236 232 227 224 222 220 220 220 220 220 222 223 224 224 223 223 224 224 225 225 226 226 227 227 227 227 227 226 227 227 228 229 230 231 231 232 233 233 234 235 235 235 236 237 238 239 239 238 237 237 238 238 238 238 238 237 237 237 237 237 237 237 238 239 239
360 357 354 350 337 310 276 255 245 240 236 233 229 226 224 223 223 222 222 223 223 224 224 224 224 224 225 226 226 227 227 228 228 229 229 230 230 230 229 230 230 231 231 231 232 232 233 234 234 235 235 236 237 238 239 240 240 240 239 239 240 240 239 239 238 238 237 237 237 237 237 237 238 239
3 360 357 354 348 333 304 276 257 247 241 238 234 231 228 227 226 225 226 226 226 226 226 226 226 226 226 227 228 229 230 231 231 232 232 233 233 234 234 234 234 234 234 234 234 234 234 234 235 235 236 236 236 237 237 238 239 239 240 240 240 240 240 240 239 239 238 238 237 237 237 237 237 238
6 3 360 357 354 347 330 301 275 260 250 244 240 237 233 231 229 228 228 229 229 229 229 228 228 228 228 229 230 231 233 234 235 236 236 237 237 238 238 238 238 238 238 238 237 238 237 237 237 237 237 237 237 237 236 236 236 237 237 238 239 240 241 241 240 240 239 239 238 238 238 237 237 237
Height
5297 5303 5309 5313 5318 5322 5325 5330 5333 5337 5341 5345 5350 5355 5361 5369 5375 5381 5388 5394 5399 5402 5407 5412 5417 5422 5427 5431 5436 5441 5446 5451 5456 5463 5470 5476 5481 5487 5493 5500 5508 5515 5522 5530 5536 5542 5548 5553 5557 5563 5567 5573 5580 5583 5584 5587 5592 5597 5603 5606 5608 5613 5617 5621 5625 5629 5633 5637 5641 5645 5649 5652 5655 5658
5283 5290 5296 5302 5308 5312 5316 5321 5324 5328 5333 5337 5342 5347 5353 5359 5367 5374 5380 5386 5392 5396 5401 5406 5410 5415 5419 5423 5429 5434 5439 5443 5449 5456 5462 5468 5474 5479 5484 5490 5498 5506 5513 5520 5526 5533 5540 5545 5550 5555 5561 5566 5573 5578 5580 5581 5584 5589 5595 5599 5603 5606 5610 5614 5619 5624 5627 5631 5635 5639 5643 5647 5650 5653
5268 5276 5284 5291 5297 5302 5307 5312 5316 5319 5324 5330 5334 5339 5345 5350 5358 5365 5372 5379 5385 5389 5394 5399 5404 5408 5413 5417 5422 5427 5432 5436 5442 5448 5454 5460 5465 5470 5476 5482 5489 5496 5504 5511 5517 5524 5530 5537 5542 5547 5553 5559 5565 5571 5575 5578 5579 5582 5587 5593 5598 5601 5604 5608 5613 5617 5621 5626 5630 5634 5637 5641 5645 5648
5254 5263 5272 5279 5285 5291 5297 5303 5307 5312 5317 5322 5327 5332 5337 5342 5349 5356 5363 5371 5378 5382 5387 5393 5398 5403 5407 5411 5415 5421 5426 5430 5435 5441 5446 5451 5457 5463 5469 5475 5481 5487 5494 5501 5508 5515 5521 5527 5534 5540 5545 5551 5557 5562 5568 5572 5575 5578 5582 5587 5593 5596 5599 5603 5607 5611 5615 5620 5624 5628 5631 5635 5638 5641
5242 5251 5260 5267 5274 5281 5288 5294 5300 5305 5309 5314 5320 5325 5329 5334 5340 5347 5355 5363 5370 5375 5380 5386 5392 5397 5401 5405 5410 5415 5420 5424 5429 5434 5438 5444 5450 5457 5463 5468 5474 5479 5485 5492 5499 5507 5513 5519 5525 5531 5537 5543 5549 5554 5560 5565 5570 5573 5577 5582 5587 5590 5594 5598 5602 5606 5609 5614 5618 5621 5625 5629 5632 5635
5231 5239 5248 5256 5263 5271 5279 5286 5292 5297 5302 5307 5312 5318 5322 5328 5333 5340 5347 5355 5362 5368 5373 5378 5384 5390 5395 5399 5404 5409 5413 5418 5422 5427 5431 5437 5443 5449 5454 5460 5466 5471 5476 5482 5489 5497 5505 5512 5518 5524 5530 5536 5541 5546 5551 5557 5563 5568 5572 5576 5580 5583 5588 5594 5598 5601 5604 5607 5611 5615 5619 5623 5625 5629
5222 5229 5237 5245 5253 5262 5270 5278 5284 5289 5295 5300 5306 5311 5316 5321 5326 5333 5339 5346 5354 5361 5366 5371 5377 5383 5388 5393 5398 5402 5406 5411 5415 5420 5425 5430 5435 5440 5446 5452 5458 5463 5468 5474 5480 5488 5496 5503 5510 5516 5522 5528 5534 5539 5543 5549 5556 5561 5565 5570 5573 5577 5583 5588 5593 5596 5599 5602 5605 5610 5613 5616 5619 5622
5215 5221 5228 5236 5244 5253 5262 5269 5276 5282 5288 5294 5300 5305 5310 5314 5320 5326 5332 5339 5346 5353 5359 5365 5370 5376 5382 5387 5391 5395 5399 5404 5409 5415 5420 5424 5429 5433 5439 5445 5451 5456 5461 5466 5472 5479 5487 5494 5502 5508 5514 5520 5526 5532 5536 5541 5548 5553 5558 5562 5567 5571 5577 5582 5586 5591 5594 5596 5600 5604 5607 5609 5612 5616
5209 5214 5221 5228 5237 5246 5254 5261 5269 5275 5282 5288 5293 5299 5304 5309 5314 5319 5325 5332 5338 5346 5353 5359 5364 5369 5374 5380 5385 5389 5394 5398 5403 5409 5414 5418 5423 5427 5432 5437 5443 5448 5453 5459 5465 5471 5478 5485 5493 5500 5507 5512 5518 5524 5529 5534 5540 5546 5551 5555 5559 5564 5570 5574 5579 5583 5588 5591 5594 5598 5601 5604 5607 5610
5204 5209 5215 5222 5231 5240 5247 5254 5262 5269 5275 5281 5287 5292 5297 5303 5308 5313 5319 5325 5331 5339 5346 5352 5357 5363 5368 5374 5379 5383 5388 5393 5397 5402 5407 5412 5416 5421 5426 5430 5435 5440 5446 5452 5458 5464 5470 5477 5484 5492 5498 5503 5509 5515 5521 5526 5532 5537 5543 5547 5551 5556 5561 5566 5571 5575 5580 5584 5588 5592 5596 5599 5602 5605
5201 5204 5209 5216 5225 5233 5240 5247 5255 5262 5268 5274 5280 5286 5292 5298 5303 5308 5314 5319 5325 5332 5339 5345 5351 5357 5362 5367 5372 5377 5382 5387 5391 5396 5400 5405 5410 5415 5420 5424 5428 5433 5439 5444 5450 5456 5462 5469 5475 5483 5489 5494 5500 5507 5513 5518 5523 5529 5534 5538 5542 5547 5552 5557 5562 5567 5571 5576 5581 5585 5590 5594 5596 5600
5198 5200 5205 5211 5218 5226 5233 5241 5249 5256 5262 5268 5274 5280 5286 5292 5298 5303 5308 5314 5320 5325 5332 5338 5344 5350 5356 5361 5366 5370 5375 5381 5386 5390 5395 5400 5404 5409 5413 5417 5422 5427 5432 5438 5443 5449 5455 5461 5467 5474 5480 5486 5492 5498 5504 5509 5514 5520 5525 5530 5535 5539 5544 5549 5554 5559 5563 5568 5573 5578 5582 5586 5589 5593
5196 5199 5203 5208 5214 5221 5229 5236 5243 5250 5256 5262 5269 5275 5280 5286 5292 5297 5303 5308 5314 5319 5325 5331 5337 5343 5350 5355 5360 5364 5370 5376 5381 5384 5389 5393 5398 5402 5406 5411 5415 5420 5426 5431 5437 5443 5449 5454 5460 5466 5472 5478 5484 5490 5496 5502 5507 5512 5517 5522 5528 5532 5536 5540 5545 5550 5555 5561 5566 5570 5575 5579 5582 5585
5194 5197 5200 5204 5210 5217 5224 5231 5237 5244 5250 5257 5263 5269 5275 5281 5286 5292 5297 5302 5308 5313 5318 5324 5330 5337 5343 5349 5354 5359 5364 5369 5373 5378 5383 5387 5391 5395 5400 5405 5410 5415 5420 5426 5431 5437 5442 5448 5453 5459 5465 5471 5477 5483 5489 5495 5500 5505 5510 5514 5519 5524 5528 5531 5537 5543 5548 5553 5558 5563 5568 5571 5574 5578
5193 5195 5198 5201 5206 5213 5219 5225 5231 5238 5246 5253 5259 5265 5270 5275 5280 5286 5291 5297 5302 5307 5312 5317 5323 5330 5336 5342 5348 5353 5357 5361 5366 5372 5377 5381 5385 5390 5395 5400 5405 5410 5415 5421 5426 5430 5436 5441 5447 5453 5458 5463 5470 5476 5481 5486 5492 5497 5502 5506 5510 5515 5519 5523 5529 5535 5541 5546 5551 5555 5559 5563 5567 5571
5192 5194 5197 5200 5204 5209 5215 5220 5226 5233 5242 5249 5255 5260 5265 5270 5275 5280 5285 5291 5296 5301 5306 5311 5317 5323 5329 5335 5341 5346 5351 5355 5360 5365 5370 5375 5380 5386 5391 5396 5401 5406 5410 5415 5420 5425 5430 5435 5441 5446 5451 5456 5462 5468 5473 5478 5483 5489 5494 5499 5503 5507 5511 5515 5520 5526 5532 5537 5542 5547 5551 5555 5559 5563
5189 5192 5195 5198 5201 5205 5210 5216 5222 5230 5239 5245 5250 5255 5260 5265 5271 5276 5281 5286 5291 5296 5301 5307 5313 5318 5323 5329 5334 5339 5344 5349 5353 5359 5364 5369 5375 5380 5386 5391 5395 5399 5404 5409 5414 5419 5424 5430 5435 5440 5445 5450 5455 5460 5465 5470 5475 5481 5486 5491 5496 5500 5504 5508 5513 5518 5523 5528 5534 5538 5543 5547 5551 5555
5188 5190 5193 5196 5199 5203 5207 5213 5219 5227 5234 5240 5246 5250 5255 5261 5266 5271 5276 5281 5286 5291 5297 5302 5307 5312 5317 5322 5327 5332 5337 5342 5347 5352 5357 5363 5368 5374 5379 5383 5388 5393 5399 5404 5409 5414 5419 5424 5429 5434 5439 5443 5448 5453 5458 5463 5467 5473 5478 5483 5488 5493 5497 5502 5506 5510 5515 5520 5525 5530 5535 5539 5543 5548
5186 5188 5190 5194 5197 5201 5205 5210 5217 5224 5230 5236 5241 5246 5251 5256 5261 5266 5271 5276 5282 5287 5292 5296 5301 5306 5311 5316 5321 5326 5331 5336 5341 5346 5351 5356 5362 5367 5373 5378 5384 5389 5394 5399 5404 5409 5414 5419 5424 5429 5433 5437 5442 5447 5451 5456 5461 5465 5470 5475 5480 5485 5490 5495 5499 5503 5508 5512 5517 5522 5527 5531 5535 5540
5185 5186 5188 5192 5195 5199 5204 5209 5214 5220 5226 5231 5237 5242 5247 5251 5257 5262 5267 5272 5277 5281 5286 5291 5296 5301 5306 5310 5315 5319 5324 5329 5334 5339 5345 5350 5355 5361 5367 5373 5379 5384 5389 5394 5399 5404 5409 5414 5419 5423 5427 5431 5436 5441 5446 5450 5455 5459 5463 5468 5473 5478 5483 5487 5492 5496 5500 5505 5509 5514 5519 5523 5528 5533
5184 5185 5187 5190 5193 5198 5202 5207 5213 5218 5223 5228 5233 5239 5243 5248 5253 5258 5262 5267 5271 5276 5281 5286 5291 5295 5300 5304 5308 5312 5317 5322 5327 5333 5338 5343 5348 5354 5360 5367 5372 5377 5382 5387 5392 5397 5402 5408 5412 5416 5421 5425 5430 5435 5440 5444 5449 5453 5457 5462 5466 5471 5476 5481 5485 5490 5494 5498 5503 5507 5512 5516 5521 5525
5184 5184 5186 5188 5192 5196 5200 5205 5211 5216 5220 5225 5230 5235 5240 5244 5249 5253 5257 5262 5267 5272 5277 5281 5286 5290 5294 5298 5302 5306 5310 5315 5320 5326 5331 5335 5341 5347 5353 5359 5364 5369 5375 5381 5385 5390 5396 5401 5405 5409 5414 5419 5424 5429 5434 5438 5442 5447 5452 5456 5461 5466 5470 5475 5479 5484 5488 5492 5496 5501 5505 5509 5513 5517
5184 5184 5186 5188 5191 5194 5199 5203 5208 5213 5218 5223 5228 5232 5237 5241 5245 5249 5253 5258 5263 5268 5273 5277 5281 5285 5289 5293 5297 5301 5305 5309 5314 5319 5324 5329 5335 5341 5346 5351 5356 5363 5369 5374 5379 5385 5389 5393 5397 5402 5406 5412 5418 5423 5427 5431 5436 5440 5445 5450 5455 5460 5464 5469 5473 5477 5481 5485 5490 5494 5497 5501 5505 5510
5184 5184 5185 5187 5190 5193 5197 5202 5206 5211 5215 5220 5225 5229 5233 5237 5241 5245 5249 5254 5259 5263 5268 5272 5276 5280 5284 5288 5292 5296 5300 5304 5308 5313 5318 5324 5330 5335 5339 5345 5351 5357 5362 5366 5371 5377 5381 5385 5390 5395 5400 5405 5410 5414 5419 5424 5429 5433 5438 5442 5448 5452 5457 5462 5466 5471 5475 5479 5483 5486 5490 5494 5498 5503
5184 5185 5185 5187 5189 5192 5196 5200 5204 5209 5213 5218 5222 5226 5230 5233 5237 5241 5246 5250 5254 5259 5263 5267 5271 5274 5278 5282 5286 5290 5294 5298 5303 5307 5312 5317 5323 5328 5334 5339 5345 5350 5354 5357 5363 5369 5373 5378 5383 5388 5393 5398 5402 5407 5412 5416 5421 5426 5431 5435 5440 5445 5449 5454 5459 5464 5467 5471 5475 5479 5483 5487 5491 5496
5184 5185 5185 5187 5189 5192 5195 5199 5203 5207 5211 5215 5219 5223 5226 5230 5234 5238 5242 5246 5250 5254 5258 5262 5265 5269 5273 5277 5281 5285 5289 5294 5299 5303 5307 5312 5317 5322 5328 5333 5338 5343 5346 5349 5354 5360 5365 5370 5375 5380 5386 5391 5395 5399 5404 5409 5414 5419 5423 5428 5433 5437 5442 5447 5452 5456 5460 5464 5468 5472 5476 5480 5484 5489
5185 5185 5185 5187 5189 5191 5194 5197 5201 5205 5209 5212 5216 5220 5224 5227 5231 5235 5239 5242 5246 5250 5254 5257 5261 5264 5268 5272 5276 5281 5286 5290 5295 5299 5303 5307 5311 5316 5321 5326 5331 5335 5338 5341 5347 5353 5358 5363 5367 5372 5378 5382 5386 5391 5397 5402 5407 5411 5416 5421 5425 5430 5435 5440 5445 5449 5452 5456 5460 5464 5468 5472 5477 5481
5184 5185 5185 5186 5188 5190 5193 5196 5199 5203 5206 5210 5214 5217 5221 5224 5228 5231 5235 5238 5242 5246 5249 5253 5256 5260 5264 5268 5272 5276 5280 5284 5288 5292 5296 5300 5304 5309 5314 5319 5324 5327 5331 5335 5341 5346 5351 5355 5360 5365 5369 5374 5379 5385 5390 5394 5399 5403 5408 5412 5417 5422 5427 5432 5437 5441 5445 5448 5452 5456 5460 5465 5470 5473
5184 5184 5185 5186 5187 5189 5191 5194 5197 5201 5204 5208 5211 5214 5218 5221 5224 5228 5231 5234 5238 5241 5245 5248 5252 5255 5259 5263 5266 5271 5274 5278 5282 5286 5290 5294 5298 5303 5307 5311 5316 5320 5325 5329 5334 5339 5344 5348 5353 5357 5361 5366 5372 5377 5381 5385 5390 5395 5399 5404 5409 5414 5419 5423 5428 5432 5436 5440 5444 5448 5453 5458 5461 5465
5183 5183 5184 5185 5186 5188 5190 5193 5195 5198 5202 5205 5208 5211 5214 5218 5221 5224 5227 5230 5233 5237 5240 5244 5247 5251 5254 5258 5261 5265 5269 5273 5276 5280 5284 5288 5293 5297 5301 5305 5309 5313 5317 5322 5327 5332 5337 5341 5345 5349 5353 5359 5364 5368 5372 5377 5381 5386 5391 5396 5401 5405 5410 5415 5419 5423 5427 5432 5436 5440 5444 5448 5451 5456
5182 5182 5183 5184 5185 5187 5188 5191 5193 5196 5199 5202 5205 5208 5211 5214 5217 5220 5223 5226 5229 5232 5236 5239 5243 5246 5249 5253 5256 5260 5264 5267 5269 5273 5278 5282 5287 5291 5295 5299 5303 5306 5310 5314 5319 5325 5329 5333 5336 5341 5346 5351 5355 5359 5363 5367 5372 5377 5382 5387 5391 5396 5401 5406 5410 5414 5419 5423 5426 5430 5434 5438 5443 5449
5182 5182 5182 5183 5184 5185 5187 5189 5191 5194 5196 5199 5202 5205 5208 5211 5214 5216 5219 5222 5225 5229 5232 5235 5238 5241 5244 5248 5251 5254 5258 5261 5263 5267 5272 5276 5280 5284 5289 5293 5297 5300 5303 5307 5312 5317 5321 5324 5328 5333 5337 5342 5346 5350 5354 5359 5364 5369 5373 5377 5382 5386 5392 5397 5401 5405 5408 5412 5416 5421 5425 5430 5436 5441
5181 5181 5181 5182 5183 5184 5185 5187 5189 5191 5194 5196 5199 5201 5204 5207 5210 5213 5216 5219 5221 5225 5228 5230 5233 5236 5239 5243 5246 5249 5252 5255 5258 5262 5266 5270 5273 5277 5282 5287 5291 5294 5297 5301 5305 5309 5313 5316 5320 5324 5328 5332 5336 5340 5345 5351 5357 5361 5364 5368 5373 5377 5382 5387 5391 5394 5397 5401 5406 5411 5416 5421 5427 5433
5180 5180 5181 5181 5182 5183 5184 5185 5187 5189 5191 5193 5196 5198 5201 5203 5206 5209 5212 5214 5217 5220 5223 5226 5229 5232 5235 5238 5240 5243 5246 5249 5252 5256 5260 5264 5267 5271 5275 5280 5284 5287 5291 5295 5298 5301 5305 5308 5311 5316 5319 5323 5327 5331 5337 5344 5349 5353 5356 5360 5364 5369 5373 5376 5379 5383 5388 5392 5397 5401 5406 5412 5418 5423
5179 5179 5180 5180 5181 5182 5182 5184 5185 5187 5189 5190 5193 5195 5197 5200 5202 5205 5208 5210 5213 5216 5218 5221 5224 5226 5229 5232 5235 5238 5241 5244 5247 5251 5254 5258 5261 5265 5270 5273 5277 5281 5284 5288 5291 5294 5297 5300 5304 5307 5311 5314 5318 5323 5330 5337 5342 5345 5348 5352 5356 5360 5363 5366 5370 5374 5378 5382 5386 5391 5397 5403 5408 5413
5178 5178 5179 5179 5180 5181 5181 5182 5183 5185 5186 5188 5190 5192 5194 5196 5198 5201 5203 5206 5209 5211 5214 5216 5219 5222 5224 5227 5230 5232 5235 5238 5242 5245 5249 5252 5256 5260 5264 5267 5271 5274 5278 5281 5285 5288 5290 5293 5296 5300 5303 5307 5311 5318 5325 5330 5333 5336 5339 5344 5348 5351 5354 5357 5361 5364 5369 5374 5378 5383 5389 5394 5399 5402
5178 5178 5178 5178 5179 5179 5180 5181 5182 5183 5184 5186 5187 5189 5191 5193 5195 5197 5200 5202 5204 5207 5209 5212 5214 5217 5219 5222 5225 5227 5230 5233 5236 5240 5243 5247 5250 5254 5258 5261 5264 5268 5271 5275 5278 5281 5284 5287 5289 5293 5297 5301 5306 5313 5319 5321 5323 5327 5331 5335 5338 5342 5344 5347 5351 5355 5360 5365 5369 5374 5380 5385 5389 5392
5177 5177 5177 5177 5178 5178 5179 5179 5180 5181 5182 5184 5185 5187 5188 5190 5192 5194 5196 5198 5201 5203 5205 5208 5210 5212 5215 5217 5220 5222 5225 5228 5231 5234 5237 5241 5244 5247 5251 5254 5258 5261 5265 5268 5271 5274 5277 5280 5283 5287 5291 5296 5302 5308 5311 5312 5315 5319 5322 5324 5327 5331 5335 5338 5343 5348 5351 5355 5360 5365 5369 5374 5378 5380
5176 5176 5175 5176 5176 5177 5177 5178 5179 5179 5180 5182 5183 5184 5186 5188 5189 5191 5193 5195 5197 5199 5201 5204 5206 5208 5211 5213 5215 5218 5220 5223 5226 5229 5232 5235 5237 5240 5244 5247 5251 5254 5258 5261 5264 5267 5270 5274 5277 5281 5285 5290 5296 5300 5300 5301 5305 5308 5310 5313 5317 5322 5326 5331 5335 5339 5342 5346 5350 5355 5359 5363 5367 5369
5176 5175 5174 5174 5175 5175 5176 5176 5177 5178 5179 5180 5181 5182 5184 5185 5187 5188 5190 5192 5194 5196 5198 5200 5202 5204 5207 5209 5211 5214 5216 5219 5221 5224 5227 5229 5232 5234 5238 5241 5244 5247 5251 5254 5258 5261 5264 5268 5271 5274 5277 5282 5286 5287 5287 5291 5296 5300 5303 5307 5312 5316 5319 5323 5326 5330 5334 5338 5342 5345 5348 5353 5357 5360
5176 5175 5173 5173 5173 5173 5174 5175 5175 5176 5177 5178 5179 5180 5182 5183 5185 5186 5188 5189 5191 5193 5195 5196 5198 5200 5203 5205 5207 5210 5212 5214 5217 5219 5222 5225 5227 5230 5233 5235 5238 5241 5245 5248 5251 5254 5257 5260 5263 5266 5269 5273 5275 5275 5279 5285 5292 5296 5298 5301 5304 5307 5310 5314 5318 5322 5326 5330 5332 5336 5340 5345 5348 5350
5176 5175 5173 5172 5171 5171 5172 5173 5173 5174 5175 5176 5177 5178 5179 5181 5182 5184 5185 5187 5188 5190 5192 5193 5195 5197 5199 5201 5203 5206 5208 5210 5213 5215 5217 5220 5223 5225 5228 5230 5233 5236 5239 5242 5244 5247 5250 5252 5255 5258 5262 5264 5266 5268 5274 5280 5285 5288 5290 5292 5294 5298 5302 5306 5310 5314 5317 5320 5323 5328 5333 5335 5337 5341
5177 5175 5173 5172 5170 5170 5170 5170 5171 5172 5172 5173 5174 5175 5176 5178 5179 5181 5183 5184 5186 5187 5189 5191 5192 5194 5196 5197 5199 5202 5204 5206 5208 5211 5213 5215 5217 5220 5223 5225 5228 5230 5233 5236 5239 5241 5243 5246 5248 5250 5253 5256 5259 5263 5268 5273 5276 5278 5281 5284 5286 5289 5292 5296 5300 5304 5308 5311 5316 5321 5324 5326 5329 5335
5177 5175 5173 5171 5170 5169 5168 5168 5169 5169 5170 5171 5172 5173 5174 5175 5176 5178 5180 5181 5183 5184 5186 5187 5189 5191 5192 5194 5196 5197 5199 5201 5203 5206 5208 5210 5212 5214 5217 5219 5222 5224 5227 5230 5232 5235 5237 5239 5242 5244 5246 5250 5253 5256 5260 5264 5266 5269 5272 5275 5277 5279 5282 5287 5291 5294 5298 5303 5308 5313 5316 5318 5322 5327
5179 5176 5174 5171 5170 5168 5167 5167 5167 5167 5168 5169 5169 5170 5171 5172 5174 5175 5176 5178 5180 5181 5182 5184 5186 5187 5189 5190 5192 5193 5195 5197 5199 5201 5203 5204 5206 5209 5211 5213 5216 5218 5220 5223 5226 5228 5230 5232 5235 5237 5240 5243 5246 5249 5252 5255 5257 5260 5263 5266 5268 5271 5274 5278 5281 5284 5288 5295 5300 5304 5306 5310 5314 5318